Regional Weather Roundup
Issued by NWS Cleveland, OH

Home | Current Version | Previous Version | Graphics & Text | Print | Product List | Glossary On
Versions: 1 2 3 4 5 6 7 8 9 10 11 12 13 14 15 16 17 18 19 20 21 22 23 24 25 26 27 28 29 30 31 32 33 34 35 36 37 38 39 40 41 42 43 44 45 46 47 48 49 50
000
ASUS41 KCLE 261702
RWRCLE
OHIO REGIONAL WEATHER ROUNDUP
NATIONAL WEATHER SERVICE CLEVELAND, OH
1200 PM EST FRI DEC 26 2014

NOTE: "FAIR" INDICATES FEW OR NO CLOUDS BELOW 12,000 FEET WITH NO
SIGNIFICANT WEATHER AND/OR OBSTRUCTIONS TO VISIBILITY.

OHZ001>008-015>018-024>027-034-035-043-044-261800-
   NORTHWEST OHIO

CITY           SKY/WX    TMP DP  RH WIND       PRES   REMARKS
DEFIANCE       SUNNY     43  35  73 SW12      30.13F
FINDLAY        SUNNY     45  36  70 S15       30.15F
TOLEDO EXPRESS SUNNY     43  34  70 SW13      30.13F
TOLEDO EXEC    SUNNY     45  35  68 SW17      30.15F
LIMA           SUNNY     45  35  68 SW16      30.16F
$$

OHZ009>014-019>023-028>033-038-089-261800-
   NORTHEAST OHIO

CITY           SKY/WX    TMP DP  RH WIND       PRES   REMARKS
CLE-HOPKINS    MOSUNNY   44  34  67 S13G22    30.19F
CLE-LAKEFRONT  SUNNY     47  33  58 S16       30.16F
CUY CO. ARPT   MOSUNNY   46  36  66 S18       30.18F
LORAIN-ELYRIA  SUNNY     44  35  70 SW13      30.17F
ASHTABULA      SUNNY     43  33  68 S14G20    30.18F
AKRON-CANTON   MOSUNNY   44  34  67 S14       30.20F
WOOSTER        SUNNY     41  34  76 SW15      30.19F
MANSFIELD      SUNNY     43  36  76 S13       30.17F
YOUNGSTOWN     MOSUNNY   43  33  68 S9        30.20F
$$

OHZ042-051>053-060>062-070>072-077>081-261800-
  SOUTHWEST OHIO

CITY           SKY/WX    TMP DP  RH WIND       PRES   REMARKS
CINC-COVINGTON PTSUNNY   46  35  65 SW10      30.23F
CINC-LUNKEN    MOSUNNY   46  39  76 S8        30.25F
HAMILTON       MOSUNNY   49  37  63 S10       30.24F
DAYTON         PTSUNNY   44  36  73 S15       30.20F
WRIGHT-PAT AFB SUNNY     45  36  71 S10       30.21F
DAYTON GENERAL MOSUNNY   46  37  71 SW12      30.20F
WILMINGTON     MOSUNNY   44  36  73 S13       30.22F
$$

OHZ036-037-039>041-045>050-054>059-063>069-073>076-082>088-261800-
  CENTRAL AND SOUTHEAST OHIO

CITY           SKY/WX    TMP DP  RH WIND       PRES   REMARKS
COLUMBUS       MOSUNNY   42  34  73 S12       30.23F
OSU AIRPORT    SUNNY     44  35  70 S10       30.21F
BOLTON FIELD   SUNNY     43  37  81 S12       30.23F
RICKENBACK AFB SUNNY     42  35  75 S12       30.23F
NEWARK         SUNNY     44  36  73 S12       30.22F
MARION         SUNNY     43  35  73 S18       30.19F
LANCASTER      SUNNY     46  36  68 SW9       30.24F
ZANESVILLE     SUNNY     42  33  70 S7        30.24F
NEW PHILLY     SUNNY     44  34  67 S9        30.24F
$$


USA.gov is the U.S. government's official web portal to all federal, state and local government web resources and services.